www.pogodaiklimat.ru

Погода и климат >> Архив погоды >> Россия >> Якутия >> Оймякон


АРХИВ ПОГОДЫ в Оймяконе

Время (UTC), дата Ветер
(напр.,м/с)
 
Видим.   Явления Облачность Т
(С)
Тd
(С)
f
(%)
Тe
(С)
Тes
(С)
Комфортность P
(гПа)
Po
(гПа)
Тmin
(С)
Tmax
(С)
R
(мм)
R24
(мм)
S
(см)
00 14.02 штиль 0 50 км осадки на расстоянии 10/0
[As op]
-35.3 -37.1 83 -35 -35 опасность
обморожения
1012.7 911.2
03 14.02 штиль 0 4000 м слабый снег 10/0
[As op]
-30.1 -32.5 79 -30 -30 по сезону 1010.0 910.9
06 14.02 СВ 1 50 км в посл. час снег 10/0
[As op]
-29.7 -32.1 80 -34 -34 опасность
обморожения
1009.7 910.8
09 14.02 С 2 50 км 10/0
[Ac trans Cs]
-31.7 -33.4 85 -39 -39 опасность
обморожения
1011.9 912.0 -29.1 0.3
12 14.02 штиль 0 50 км 10/0
[Ac trans Cs]
-34.3 -35.8 86 -34 -34 опасность
обморожения
1014.5 913.2
15 14.02 ЮЗ 1 50 км 8/0
[Ac trans Cs]
-36.8 -39.1 79 -42 -42 опасность
обморожения
1016.3 913.8
18 14.02 штиль 0 50 км 4/0
[Ci fib]
-39.5 -41.6 80 -40 -40 опасность
обморожения
1018.3 914.5
21 14.02 штиль 0 50 км 8/0
[Ci fib]
-41.8 -43.7 82 -42 -42 опасность
обморожения
1019.7 914.7 -41.9 36
00 15.02 штиль 0 50 км 8/0
[Ci fib]
-40.4 -42.6 79 -40 -40 опасность
обморожения
1019.7 915.4 -42.5
03 15.02 В 1 50 км 6/0
[Ci fib]
-32.3 -34.6 80 -37 -35 опасность
обморожения
1016.1 915.4
06 15.02 З 1 50 км 8/0
[Ci fib]
-29.8 -32.1 80 -34 -34 опасность
обморожения
1015.0 915.5
09 15.02 З 1 50 км 3/0
[Ci fib]
-38.2 -40.3 80 -43 -43 опасность
обморожения
1019.8 916.5 -29.2
12 15.02 ЮЗ 1 20 км 3/0
[Ci fib]
-41.3 -43.1 83 -47 -47 опасность
обморожения
1022.8 917.7
15 15.02 штиль 0 50 км 3/0
[Ci fib]
-43.0 -44.9 81 -43 -43 опасность
обморожения
1024.0 918.2
18 15.02 штиль 0 50 км 1/0
[Ci fib]
-44.4 -46.3 81 -44 -44 опасность
обморожения
1026.0 919.4
21 15.02 штиль 0 50 км 1/0
[Ci fib]
-45.8 -48.0 78 -46 -46 опасность
обморожения
1027.1 919.7 -45.8 36
00 16.02 ЮЗ 1 50 км 3/0
[Ci fib]
-45.1 -47.1 80 -51 -50 опасность
обморожения
1026.2 920.2
03 16.02 штиль 0 50 км 8/0
[Ci fib]
-33.8 -40.3 52 -34 -32 опасность
обморожения
1022.0 920.1
06 16.02 З 1 50 км 9/0
[Ci fib]
-32.8 -35.7 75 -37 -37 опасность
обморожения
1020.9 919.5
09 16.02 З 1 50 км 6/0
[Ci fib]
-39.1 -41.1 81 -44 -44 опасность
обморожения
1024.0 919.9 -32.6
12 16.02 З 1 50 км 4/0
[Ci fib]
-41.1 -43.1 81 -46 -46 опасность
обморожения
1025.4 920.3
15 16.02 штиль 0 50 км 3/0
[Ci fib]
-42.9 -44.9 81 -43 -43 опасность
обморожения
1026.1 920.1
18 16.02 З 1 50 км слабый снег 8/0
[Cs]
-41.7 -43.7 81 -47 -47 опасность
обморожения
1025.3 920.0
21 16.02 ЮЗ 1 50 км {снег} 3/0
[Ci fib]
-44.1 -46.3 79 -50 -50 опасность
обморожения
1027.3 920.7 -44.5 0.1 36
00 17.02 З 1 50 км ледяные иглы ясно -43.8 -45.6 82 -49 -49 опасность
обморожения
1027.7 921.1 -46.1
03 17.02 штиль 0 50 км 1/0
[Ci fib]
-32.3 -35.3 74 -32 -30 опасность
обморожения
1022.1 920.8
06 17.02 штиль 0 50 км 8/0
[Ci fib]
-31.4 -34.2 76 -31 -31 опасность
обморожения
1021.5 920.6
09 17.02 З 1 50 км 8/0
[Ci fib]
-37.0 -39.1 81 -42 -42 опасность
обморожения
1024.2 920.9 -31.3
12 17.02 З 1 50 км 8/0
[Ci fib]
-41.2 -43.1 82 -47 -47 опасность
обморожения
1027.0 921.7
15 17.02 ЮЗ 1 50 км 6/0
[Ci fib]
-41.4 -43.7 78 -47 -47 опасность
обморожения
1027.4 921.9
18 17.02 ЮЗ 1 50 км 6/0
[Ci fib]
-44.0 -46.3 78 -50 -50 опасность
обморожения
1029.0 922.3
21 17.02 штиль 0 50 км 1/0
[Ci fib]
-45.1 -47.1 80 -45 -45 опасность
обморожения
1030.1 922.8 -45.3 36
00 18.02 Ю 1 50 км слабый снег 10/0
[Ac trans Cs]
-40.3 -42.6 78 -46 -45 опасность
обморожения
1028.1 922.9 -46.0
03 18.02 С 1 50 км слабый снег 10/0
[Ac trans Cs]
-34.6 -36.7 81 -39 -38 опасность
обморожения
1024.5 922.2
06 18.02 СВ 1 50 км {снег} 8/0
[Ac trans Ci fib]
-35.4 -37.7 79 -40 -40 опасность
обморожения
1024.0 921.4
09 18.02 штиль 0 50 км 10/0
[Ac trans Cs]
-35.6 -37.7 81 -36 -36 опасность
обморожения
1023.9 921.3 -34.1 0.2
12 18.02 С 1 50 км слабый снег 10/0
[Ac trans Cs]
-33.1 -35.3 81 -38 -38 опасность
обморожения
1022.6 921.1
15 18.02 СВ 1 50 км слабый снег 8/0
[Ac trans Cs]
-34.9 -37.0 81 -40 -40 опасность
обморожения
1022.9 920.5
18 18.02 З 1 50 км {снег} 3/0
[Ci fib]
-42.7 -44.9 79 -48 -48 опасность
обморожения
1026.0 920.2
21 18.02 Ю 1 50 км 3/0
[Ci fib]
-45.3 -47.1 82 -51 -51 опасность
обморожения
1027.4 920.2 -45.4 0.0 36
00 19.02 штиль 0 50 км слабый снег 10/0
[Cs]
-41.6 -43.7 80 -42 -41 опасность
обморожения
1025.4 920.1 -45.8
03 19.02 штиль 0 50 км в посл. час снег 8/0
[Cs]
-33.7 -36.5 76 -34 -32 опасность
обморожения
1020.3 918.8
06 19.02 С 1 50 км {снег} 8/0
[Ci fib]
-32.1 -34.3 81 -36 -36 опасность
обморожения
1018.9 918.1
09 19.02 З 1 50 км 4/0
[Ci fib]
-38.8 -41.1 79 -44 -44 опасность
обморожения
1022.3 918.4 -31.7 0.0
12 19.02 штиль 0 50 км 3/0
[Ci fib]
-41.8 -43.7 82 -42 -42 опасность
обморожения
1023.1 917.8
15 19.02 Ю 1 50 км 10/0
[Cs]
-37.9 -40.3 78 -43 -43 опасность
обморожения
1020.4 917.1
18 19.02 штиль 0 50 км слабый снег 10/0
[Cs]
-34.8 -37.0 80 -35 -35 опасность
обморожения
1018.2 916.3
21 19.02 штиль 0 50 км слабый снег 10/0
[Ac trans Cs]
-33.6 -35.9 80 -34 -34 опасность
обморожения
1016.8 915.6 -42.3 0.0 36
00 20.02 штиль 0 4000 м слабый снег 10/0
[Ac trans Cs]
-32.0 -34.3 80 -32 -32 опасность
обморожения
1016.0 915.5
03 20.02 штиль 0 50 км в посл. час снег 3/0
[Ac trans Ci fib]
-29.3 -32.4 74 -29 -27 по сезону 1014.1 914.8
06 20.02 С 1 50 км {снег} 3/0
[Ac trans Ci fib]
-28.6 -31.6 75 -33 -32 опасность
обморожения
1013.6 914.7
09 20.02 З 1 50 км 1/0
[]
-37.4 -39.5 81 -42 -42 опасность
обморожения
1017.9 915.0 -27.9 0.3
12 20.02 ЮЗ 1 50 км 1/0
[Ci fib]
-41.8 -43.7 82 -47 -47 опасность
обморожения
1021.2 916.1
15 20.02 ЮЗ 1 50 км 1/0
[Ci fib]
-44.5 -46.3 82 -50 -50 опасность
обморожения
1022.6 916.3
18 20.02 штиль 0 50 км ясно -45.4 -47.1 83 -45 -45 опасность
обморожения
1023.8 916.9
21 20.02 З 1 50 км ясно -46.7 -48.9 78 -53 -53 опасность
обморожения
1024.6 917.2 -46.7 36

 

Местоположение метеостанции Оймякон (Якутия, Россия): широта 63.25 долгота 143.10 высота над уровнем моря 740 м.

В архиве по умолчанию представлена погода в Оймяконе за последнюю неделю. Архивные данные за месяц целиком и за предыдущие месяцы, начиная с января 2011 года, Вы можете получить, выбрав интересующий диапазон дат из раскрывающегося списка и нажав кнопку "Ввод!".

Внимание! Время в таблицах - всемирное. Для получения местного времени необходимо прибавить поправку, которая в Оймяконе равна 10 ч.

Смотрите также архив погоды в соседних городах и на ближайших метеорологических станциях:

Погода в Агаякане (Якутия, Россия) (71 км)
Погода в Юртах (Якутия, Россия) (110 км)
Погода в Делянкире (Якутия, Россия) (140 км)
Погода в Усть-Нере (Якутия, Россия) (142 км)
Погода в Восточной (Якутия, Россия) (175 км)
Погода в Сусумане (Магаданская область, Россия) (258 км)
Погода в Колымской (Магаданская область, Россия) (278 км)
Погода в Уеге (Хабаровский край, Россия) (282 км)
Погода в Теплом Ключе (Якутия, Россия) (322 км)
Погода в Ягодной (Магаданская область, Россия) (340 км)

Пояснения к столбцам:

Ветер - указаны скорость ветра в м/с - средняя за 10 мин, порывы в срок и между сроками (в фигурных скобках) и направление, откуда дует ветер: С - северный, СВ - северо-восточный, В - восточный, ЮВ - юго-восточный, Ю - южный, ЮЗ - юго-западный, З - западный, СЗ - северо-западный.
Видимость - горизонтальная дальность видимости в метрах или километрах. При видимости от 1 до 10 км при отсутствии осадков обычно наблюдается дымка, при ухудшении видимости до 1 км и менее - туман. В сухую погоду видимость может ухудшаться дымом, пылью или мглою.
Явления - указаны атмосферные явления, наблюдавшиеся в срок или в последний час перед сроком; фигурными скобками обозначены явления, наблюдавшиеся между сроками (за 1-3 часа до срока); квадратными скобками обозначены град или гололедные отложения с указанием их диаметра в мм.
Облачность - указаны через наклонную черту общая и нижняя облачность в баллах и высота нижней границы облаков в метрах; квадратными скобками обозначены формы облаков: Ci - перистые, Cs - перисто-слоистые, Cc - перисто-кучевые, Ac - высококучевые, As - высокослоистые, Sc - слоисто-кучевые, Ns - слоисто-дождевые, Cu - кучевые, Cb - кучево-дождевые. Подробнее классификацию облаков см. в Атласе облаков (PDF).
T - Температура воздуха - температура, измеренная на высоте 2 м над землей.
Td - Температура точки росы - температура, при понижении до которой содержащийся в воздухе водяной пар достигнет насыщения.
f - Относительная влажность воздуха - влажноcть воздуха, измеренная на высоте 2 м над землей.
Te - Эффективная температура - температура, которую ощущает одетый по сезону человек в тени. Характеристика душности погоды. При расчете учитывается влияние влажности воздуха и скорости ветра на теплоощущения человека.
Tes - Эффективная температура на солнце - температура, которую ощущает человек, с поправкой на солнечный нагрев. Характеристика знойности погоды. Зависит от высоты солнца над горизонтом, облачности и скорости ветра. Ночью, в пасмурную погоду, а также при ветре 12 м/с и более поправка равна нулю.
P - Атмосферное давление - приведенное к уровню моря атмосферное давление.
Po - Атмосферное давление - измеренное на уровне метеостанции атмосферное давление.
Tmin - Минимальная температура - минимум температуры воздуха на высоте 2 м над землей.
Tmax - Максимальная температура - максимум температуры воздуха на высоте 2 м над землей.
R - Количество осадков - Количество выпавших осадков за период времени, мм. При наведении курсора мыши на число - период времени, за который выпало указанное количество осадков.
R24 - Количество осадков - Количество выпавших осадков за 24 часа, мм.
S - Снежный покров - Высота снежного покрова, см. При наведении курсора мыши на число - состояние снежного покрова и степень покрытия местности в баллах.